This demonstration page uses our WeatherBlox Daily Observations layout. Learn more.

38.88101, -77.10428

Hourly Observations for October 2, 2017

Temp ( °F °C ) Dew Point ( °F °C ) Humidity (%) Winds ( mph kmh ) Pressure ( in mb ) Visibility ( mi km ) Precip ( " mm )
12:52 am 00:52 Clear 57 13.9 50 10 78 78 Calm 30.35 1028 10 16.0934 0 0
1:52 am 01:52 Clear 57 13.9 52 11.1 83 83 ENE 3 6 30.35 1028 10 16.0934 0 0
2:52 am 02:52 Mostly Clear 56 13.3 51 10.6 84 84 Calm 30.36 1028 10 16.0934 0 0
3:52 am 03:52 Mostly Cloudy 55 12.8 50 10 83 83 Calm 30.35 1028 10 16.0934 0 0
4:52 am 04:52 Partly Cloudy 53 11.7 50 10 89 89 WSW 3 6 30.35 1028 10 16.0934 0 0
5:52 am 05:52 Partly Cloudy 53 11.7 49 9.4 86 86 Calm 30.36 1028 10 16.0934 0 0
6:52 am 06:52 Mostly Clear 54 12.2 50 10 87 87 Calm 30.38 1029 10 16.0934 0 0
7:52 am 07:52 Sunny 55 12.8 50 10 83 83 Calm 30.4 1030 10 16.0934 0 0
8:52 am 08:52 Sunny 60 15.6 54 12.2 80 80 Calm 30.42 1030 10 16.0934 0 0
9:52 am 09:52 Sunny 62 16.7 53 11.7 73 73 SSE 3 6 30.43 1031 10 16.0934 0 0
10:52 am 10:52 Mostly Sunny 66 18.9 54 12.2 65 65 ESE 3 6 30.44 1031 10 16.0934 0 0
11:52 am 11:52 Partly Cloudy 69 20.6 49 9.4 49 49 ESE 5 7 30.43 1031 10 16.0934 0 0
12:52 pm 12:52 Mostly Sunny 71 21.7 50 10 47 47 VRB 3 6 30.42 1030 10 16.0934 0 0
1:52 pm 13:52 Mostly Sunny 72 22.2 51 10.6 48 48 S 7 11 30.4 1030 10 16.0934 0 0
2:52 pm 14:52 Mostly Sunny 72 22.2 50 10 46 46 S 6 9 30.39 1029 10 16.0934 0 0
3:52 pm 15:52 Mostly Sunny 73 22.8 49 9.4 43 43 S 3 6 30.38 1029 10 16.0934 0 0
4:52 pm 16:52 Mostly Sunny 73 22.8 50 10 44 44 SSE 6 9 30.38 1029 10 16.0934 0 0
5:52 pm 17:52 Mostly Sunny 72 22.2 52 11.1 50 50 S 6 9 30.4 1030 10 16.0934 0 0
6:52 pm 18:52 Mostly Clear 70 21.1 54 12.2 57 57 SE 12 19 30.41 1030 10 16.0934 0 0
7:52 pm 19:52 Clear 67 19.4 54 12.2 63 63 ESE 9 15 30.42 1030 10 16.0934 0 0
8:52 pm 20:52 Clear 64 17.8 54 12.2 70 70 S 6 9 30.45 1031 10 16.0934 0 0
9:52 pm 21:52 Partly Cloudy 64 17.8 53 11.7 68 68 S 5 7 30.45 1031 10 16.0934 0 0
10:52 pm 22:52 Partly Cloudy 63 17.2 53 11.7 70 70 WSW 3 6 30.47 1032 10 16.0934 0 0
11:52 pm 23:52 Partly Cloudy 63 17.2 54 12.2 73 73 E 6 9 30.47 1032 10 16.0934 0 0

Powered by AerisWeather